Stations météo

réclame
Mon MeteoGroup
Hawarden, Grande-Bretagne (3321): Température de l'air & dewpoint: 12.02.2019 16:00:00 - 18.02.2019 16:00:00 (GMT)Hawarden, Grande-Bretagne (3321): Température de l'air -20cm & Température de l'air -100cm: 12.02.2019 16:00:00 - 18.02.2019 16:00:00 (GMT)Hawarden, Grande-Bretagne (3321): Vitesse du vent & gusts: 12.02.2019 16:00:00 - 18.02.2019 16:00:00 (GMT)Hawarden, Grande-Bretagne (3321): Direction du vent: 12.02.2019 16:00:00 - 18.02.2019 16:00:00 (GMT)Hawarden, Grande-Bretagne (3321): reduced air pressure: 12.02.2019 16:00:00 - 18.02.2019 16:00:00 (GMT)Hawarden, Grande-Bretagne (3321): visibility: 12.02.2019 16:00:00 - 18.02.2019 16:00:00 (GMT)Hawarden, Grande-Bretagne (3321): Ensoleillement: 12.02.2019 16:00:00 - 18.02.2019 16:00:00 (GMT)Hawarden, Grande-Bretagne (3321): Quantités de précipitations: 12.02.2019 16:00:00 - 18.02.2019 16:00:00 (GMT)
Date & Time tt [°C] td [°C] tt -20cm [°C] tt -100cm [°C] ff [km/h] ff [knt] fx [km/h] fx [knt] dd ppp [hPa] vv [km] sd [min] rr [mm]
18.02.2019 16:00:00 9,3 4,3 - - 26 14 - - SW 1010,6 10 12 0,0
18.02.2019 15:00:00 10,2 3,7 - - 18 10 57 31 WSW 1010,5 10 42 0,0
18.02.2019 14:00:00 10,7 2,8 - - 42 23 59 32 SW 1010,0 10 54 0,0
18.02.2019 13:00:00 9,8 2,8 - - 31 17 46 25 SW 1009,9 10 6 0,0
18.02.2019 12:00:00 9,8 4,4 - - 22 12 - - SW 1010,7 10 0 0,0
18.02.2019 11:00:00 9,5 3,9 - - 16 9 - - WSW 1010,8 10 12 0,0
18.02.2019 10:00:00 9,1 5,0 - - 15 8 - - SW 1010,5 10 0 0,0
18.02.2019 09:00:00 7,8 5,2 6,5 6,9 15 8 - - S 1010,4 10 0 0,0
18.02.2019 08:00:00 6,7 4,4 - - 11 6 - - SSE 1010,2 10 0 0,0
18.02.2019 07:00:00 7,7 4,9 - - 13 7 - - S 1010,1 10 0 0,0
18.02.2019 06:00:00 7,2 4,6 - - 13 7 - - SSE 1009,9 21 0 0,0
18.02.2019 05:00:00 7,1 4,7 - - 15 8 - - ESE 1010,0 20 0 0,0
18.02.2019 04:00:00 7,2 5,2 - - 13 7 - - ESE 1010,0 20 0 0,0
18.02.2019 03:00:00 6,6 4,9 - - 2 1 - - NW 1010,3 19 0 0,0
18.02.2019 02:00:00 6,8 4,4 - - 8 4 - - S 1010,6 17 0 0,0
18.02.2019 01:00:00 7,4 4,9 - - 11 6 - - SSE 1010,5 18 0 0,0
18.02.2019 00:00:00 8,2 5,0 - - 5 3 - - SSE 1010,5 16 - 0,0
17.02.2019 23:00:00 8,5 4,7 - - 18 10 - - SSE 1010,3 19 0 0,0
17.02.2019 22:00:00 8,2 4,4 - - 22 12 - - SSE 1010,1 17 0 0,0
17.02.2019 21:00:00 8,7 4,0 - - 28 15 - - SE 1010,0 20 0 0,0
17.02.2019 20:00:00 8,6 3,7 - - 16 9 - - S 1010,5 19 0 0,0
17.02.2019 19:00:00 8,8 3,2 - - 13 7 - - SSW 1010,3 10 0 0,0
17.02.2019 18:00:00 9,2 3,5 - - 15 8 - - SSW 1009,8 10 6 0,0
17.02.2019 17:00:00 11,2 3,2 - - 26 14 - - SSW 1009,6 10 36 0,0
17.02.2019 16:00:00 12,4 5,1 - - 21 11 - - SSW 1009,5 10 18 0,0
17.02.2019 15:00:00 12,7 7,6 - - 18 10 - - SW 1009,4 10 6 1,0
17.02.2019 14:00:00 13,1 6,7 - - 24 13 - - S 1009,3 10 42 0,0
17.02.2019 13:00:00 14,2 7,4 - - 21 11 - - S 1009,4 10 30 0,0
17.02.2019 12:00:00 12,7 7,7 - - 13 7 - - SSE 1009,3 10 12 -
17.02.2019 11:00:00 10,4 6,0 - - 21 11 - - SSE 1009,3 10 42 -
17.02.2019 10:00:00 9,5 6,1 - - 13 7 - - SSE 1009,0 10 6 -
17.02.2019 09:00:00 8,1 5,6 6,4 6,7 13 7 - - S 1009,1 10 6 0,0
17.02.2019 08:00:00 7,6 5,8 - - 13 7 - - SSE 1009,2 13 0 0,0
17.02.2019 07:00:00 7,3 6,0 - - 15 8 - - S 1009,6 12 0 0,0
17.02.2019 06:00:00 7,9 6,6 - - 16 9 - - S 1010,2 13 0 0,0
17.02.2019 05:00:00 5,8 4,7 - - 5 3 - - SSE 1011,0 11 0 0,0
17.02.2019 04:00:00 7,7 6,2 - - 16 9 - - S 1011,8 17 0 0,0
17.02.2019 03:00:00 8,0 6,4 - - 16 9 - - SSE 1012,6 17 0 0,0
17.02.2019 02:00:00 8,4 6,4 - - 21 11 - - S 1013,5 21 0 0,0
17.02.2019 01:00:00 9,3 6,9 - - 21 11 - - SSE 1013,6 21 0 0,0
17.02.2019 00:00:00 9,4 7,4 - - 16 9 - - SSE 1014,6 15 - 0,0
16.02.2019 23:00:00 10,8 7,7 - - 21 11 - - S 1015,2 19 0 0,0
16.02.2019 22:00:00 11,5 9,4 - - 15 8 - - SSE 1015,9 16 0 0,0
16.02.2019 21:00:00 11,7 9,3 - - 18 10 - - SSE 1016,1 22 0 0,0
16.02.2019 20:00:00 11,8 9,5 - - 16 9 - - SSE 1016,4 30 0 0,0
16.02.2019 19:00:00 11,1 8,7 - - 16 9 - - SSE 1016,6 10 0 0,0
16.02.2019 18:00:00 11,4 8,6 - - 18 10 - - SSE 1016,5 10 0 0,0
16.02.2019 17:00:00 11,8 8,0 - - 18 10 - - SSE 1016,7 10 0 0,0
16.02.2019 16:00:00 12,2 6,9 - - 16 9 - - S 1017,1 10 0 0,0
16.02.2019 15:00:00 12,8 6,1 - - 22 12 - - S 1017,8 10 24 0,0
16.02.2019 14:00:00 13,5 5,0 - - 26 14 - - SSW 1018,3 10 60 0,0
16.02.2019 13:00:00 13,6 5,4 - - 22 12 - - SSW 1019,1 10 60 0,0
16.02.2019 12:00:00 13,5 5,9 - - 22 12 - - SSW 1019,5 10 54 0,0
16.02.2019 11:00:00 12,3 5,5 - - 28 15 - - SW 1019,6 10 60 0,0
16.02.2019 10:00:00 10,7 5,8 - - 16 9 - - SSE 1019,2 10 60 0,0
16.02.2019 09:00:00 9,3 5,8 5,7 6,7 16 9 - - SSE 1019,5 10 6 0,0
16.02.2019 08:00:00 7,1 4,2 - - 5 3 - - ESE 1019,2 20 0 0,0
16.02.2019 07:00:00 9,5 4,9 - - 21 11 - - SSW 1018,6 30 0 0,0
16.02.2019 06:00:00 9,6 4,9 - - 21 11 - - SW 1018,3 35 0 0,0
16.02.2019 05:00:00 9,6 5,5 - - 15 8 - - SSW 1018,3 30 0 0,0
16.02.2019 04:00:00 9,5 5,7 - - 18 10 - - SW 1018,1 17 0 0,0
16.02.2019 03:00:00 10,6 7,2 - - 13 7 - - WSW 1018,1 30 0 0,0
16.02.2019 02:00:00 10,2 7,6 - - 13 7 - - S 1017,7 23 0 0,0
16.02.2019 01:00:00 9,8 6,0 - - 4 2 - - WSW 1018,5 21 0 0,0
16.02.2019 00:00:00 8,9 5,4 - - 16 9 - - S 1018,3 21 - 0,0
15.02.2019 23:00:00 9,5 5,2 - - 24 13 - - SSE 1018,3 17 0 0,0
15.02.2019 22:00:00 8,4 4,7 - - 16 9 - - S 1018,9 19 0 0,0
15.02.2019 21:00:00 9,0 5,1 - - 16 9 - - S 1018,3 10 0 0,0
15.02.2019 20:00:00 9,0 4,9 - - 21 11 - - SSE 1019,0 10 0 0,0
15.02.2019 19:00:00 9,7 5,6 - - 28 15 - - SSE 1019,8 10 0 0,0
15.02.2019 18:00:00 10,2 5,7 - - 24 13 - - SSE 1019,7 10 0 0,0
15.02.2019 17:00:00 11,5 6,0 - - 21 11 - - SSE 1020,2 10 36 0,0
15.02.2019 16:00:00 12,8 6,6 - - 16 9 - - SSE 1020,4 10 60 0,0
15.02.2019 15:00:00 13,0 5,4 - - 21 11 - - SSE 1021,0 10 60 0,0
15.02.2019 14:00:00 12,1 4,9 - - 22 12 - - SSE 1021,9 10 60 0,0
15.02.2019 13:00:00 11,1 4,9 - - 21 11 - - SSE 1022,5 10 60 0,0
15.02.2019 12:00:00 9,1 4,2 - - 16 9 - - SSE 1023,3 10 60 0,0
15.02.2019 11:00:00 7,1 3,7 - - 21 11 - - SE 1023,7 10 60 0,0
15.02.2019 10:00:00 4,5 2,4 - - 22 12 - - SSE 1024,4 9 60 0,2
15.02.2019 09:00:00 2,2 1,0 5,2 6,7 18 10 - - SSE 1025,2 8 54 0,0
15.02.2019 08:00:00 0,8 0,0 - - 11 6 - - SSE 1025,2 8 0 0,0
15.02.2019 07:00:00 0,6 -0,1 - - 15 8 - - SSE 1025,1 5 0 0,0
15.02.2019 06:00:00 1,1 0,5 - - 15 8 - - SSE 1025,3 5 0 0,0
15.02.2019 05:00:00 1,6 0,8 - - 15 8 - - SSE 1025,7 6 0 0,0
15.02.2019 04:00:00 1,9 1,1 - - 15 8 - - SE 1025,6 7 0 0,0
15.02.2019 03:00:00 3,0 1,8 - - 26 14 - - SSE 1026,0 9 0 0,0
15.02.2019 02:00:00 2,2 1,7 - - 11 6 - - S 1026,5 6 0 0,0
15.02.2019 01:00:00 2,4 1,8 - - 11 6 - - SSW 1026,9 4,9 0 0,0
15.02.2019 00:00:00 2,8 1,8 - - 4 2 - - S 1027,1 5 - 0,0
14.02.2019 23:00:00 2,2 0,8 - - 8 4 - - SSW 1027,2 6 0 0,0
14.02.2019 22:00:00 3,0 1,7 - - 11 6 - - SSE 1027,6 9 0 0,0
14.02.2019 21:00:00 4,5 2,7 - - 18 10 - - SSE 1027,6 10 0 0,0
14.02.2019 20:00:00 5,2 3,0 - - 13 7 - - SSE 1028,1 16 0 0,0
14.02.2019 19:00:00 5,4 3,2 - - 13 7 - - SE 1028,2 10 0 0,0
14.02.2019 18:00:00 6,0 2,7 - - 9 5 - - SE 1028,2 10 0 0,0
14.02.2019 17:00:00 8,8 3,7 - - 11 6 - - SSE 1028,3 10 54 0,0
14.02.2019 16:00:00 10,7 4,3 - - 21 11 - - SSE 1028,2 10 60 0,0
14.02.2019 15:00:00 11,0 5,5 - - 24 13 - - SSE 1028,5 10 60 0,0
14.02.2019 14:00:00 10,6 5,1 - - 21 11 - - SSE 1028,9 10 60 0,0
14.02.2019 13:00:00 8,3 5,5 - - 26 14 - - SSE 1029,7 10 60 0,0
14.02.2019 12:00:00 5,7 4,7 - - 15 8 - - S 1030,7 10 30 0,0
14.02.2019 11:00:00 3,2 3,1 - - 18 10 - - SSE 1031,0 4,0 0 0,0
14.02.2019 10:00:00 2,3 2,2 - - 22 12 - - S 1030,9 0,7 0 0,0
14.02.2019 09:00:00 1,7 1,6 5,7 6,7 16 9 - - S 1031,0 0,3 0 0,2
14.02.2019 08:00:00 1,3 1,1 - - 16 9 - - SSE 1030,9 10 0 0,0
14.02.2019 07:00:00 0,8 0,6 - - 9 5 - - SE 1030,3 5 0 0,0
14.02.2019 06:00:00 0,5 0,2 - - 8 4 - - SSE 1029,8 3,2 0 0,0
14.02.2019 05:00:00 1,5 1,1 - - 8 4 - - S 1029,9 5 0 0,0
14.02.2019 04:00:00 2,0 1,5 - - 8 4 - - SE 1029,8 6 0 0,0
14.02.2019 03:00:00 3,0 2,5 - - 5 3 - - SSW 1029,9 12 0 0,0
14.02.2019 02:00:00 2,7 1,9 - - 9 5 - - SSW 1030,2 11 0 0,0
14.02.2019 01:00:00 3,3 2,3 - - 9 5 - - SSW 1030,0 12 0 0,0
14.02.2019 00:00:00 5,3 3,8 - - 11 6 - - SSE 1029,7 17 - 0,0
13.02.2019 23:00:00 5,6 4,3 - - 13 7 - - S 1029,3 18 0 0,0
13.02.2019 22:00:00 4,4 3,2 - - 5 3 - - SE 1029,1 16 0 0,0
13.02.2019 21:00:00 5,5 3,9 - - 4 2 - - - 1029,2 10 0 0,0
13.02.2019 20:00:00 6,3 4,1 - - 9 5 - - S 1029,2 10 0 0,0
13.02.2019 19:00:00 6,5 4,1 - - 4 2 - - - 1029,0 10 0 0,0
13.02.2019 18:00:00 8,4 5,0 - - 13 7 - - SSE 1028,6 10 0 0,0
13.02.2019 17:00:00 9,1 5,3 - - 18 10 - - S 1028,2 10 0 0,0
13.02.2019 16:00:00 10,1 5,7 - - 15 8 - - S 1028,3 10 0 0,0
13.02.2019 15:00:00 10,3 5,6 - - 16 9 - - S 1028,5 10 0 0,0
13.02.2019 14:00:00 10,7 5,4 - - 11 6 - - SSE 1028,9 10 6 0,0
13.02.2019 13:00:00 11,1 5,2 - - 13 7 - - S 1029,3 10 6 0,0
13.02.2019 12:00:00 10,8 5,2 - - 16 9 - - SSE 1029,5 10 0 0,0
13.02.2019 11:00:00 10,3 5,8 - - 15 8 - - S 1029,4 10 6 0,0
13.02.2019 10:00:00 9,0 5,7 - - 15 8 - - SSE 1029,2 10 0 0,0
13.02.2019 09:00:00 8,3 5,5 5,7 6,7 11 6 - - SE 1029,1 10 0 0,0
13.02.2019 08:00:00 8,2 4,9 - - 13 7 - - SE 1029,2 10 0 0,0
13.02.2019 07:00:00 9,0 5,1 - - 15 8 - - SSW 1029,4 10 0 0,0
13.02.2019 06:00:00 9,3 5,0 - - 11 6 - - S 1029,4 10 0 0,0
13.02.2019 05:00:00 9,4 5,3 - - 11 6 - - S 1029,7 40 0 0,0
13.02.2019 04:00:00 9,2 6,9 - - 11 6 - - S 1029,7 40 0 0,0
13.02.2019 03:00:00 9,1 7,2 - - 11 6 - - SSE 1030,0 45 0 0,0
13.02.2019 02:00:00 7,7 6,6 - - 13 7 - - S 1030,4 40 0 0,0
13.02.2019 01:00:00 7,7 6,4 - - 9 5 - - SSE 1030,5 45 0 0,0
13.02.2019 00:00:00 8,5 7,1 - - 9 5 - - S 1030,4 35 - 0,0
12.02.2019 23:00:00 9,9 7,6 - - 11 6 - - S 1030,3 40 0 0,0
12.02.2019 22:00:00 9,1 6,9 - - 11 6 - - S 1030,0 45 0 0,0
12.02.2019 21:00:00 10,3 7,9 - - 26 14 - - SW 1029,9 10 0 0,0
12.02.2019 20:00:00 10,3 8,1 - - 26 14 - - SW 1029,9 10 0 0,0
12.02.2019 19:00:00 10,2 7,9 - - 21 11 - - SW 1029,8 10 0 0,0
12.02.2019 18:00:00 10,6 8,0 - - 9 5 - - - 1029,7 10 0 0,0
12.02.2019 17:00:00 11,1 8,1 - - 22 12 - - SW 1029,1 10 0 0,0
12.02.2019 16:00:00 11,2 8,2 - - 24 13 - - SW 1029,0 10 0 0,0

tt = Température de l'air
td = dewpoint
tt -20cm = Température de l'air -20cm
tt -100cm = Température de l'air -100cm
ff = Vitesse du vent
fx = gusts
dd = Direction du vent
ppp = reduced air pressure
vv = visibility
sd = Ensoleillement
rr = Quantités de précipitations

stations d'obs. à proximité